Time,TemperatureF,DewpointF,PressureIn,WindDirection,WindDirectionDegrees,WindSpeedMPH,WindSpeedGustMPH,Humidity,HourlyPrecipIn,Conditions,Clouds,dailyrainin,SoftwareType,DateUTC
2013-02-23 00:00:00,22.5,15.4,30.06,South,180,2.0,4.0,74,0.00,,,0.00,meteohub,2013-02-23 06:00:00,
2013-02-23 00:05:00,22.5,15.4,30.06,South,180,2.0,4.0,74,0.00,,,0.00,meteohub,2013-02-23 06:05:00,
2013-02-23 00:10:00,22.5,15.4,30.06,NE,45,2.0,2.0,74,0.00,,,0.00,meteohub,2013-02-23 06:10:00,
2013-02-23 00:15:00,22.3,15.3,30.06,SE,135,1.0,3.0,74,0.00,,,0.00,meteohub,2013-02-23 06:15:00,
2013-02-23 00:21:00,22.3,15.3,30.06,SE,135,4.0,4.0,74,0.00,,,0.00,meteohub,2013-02-23 06:21:00,
2013-02-23 00:26:00,22.3,15.3,30.06,SE,135,2.0,4.0,74,0.00,,,0.00,meteohub,2013-02-23 06:26:00,
2013-02-23 00:31:00,22.3,15.3,30.06,SE,135,4.0,4.0,74,0.00,,,0.00,meteohub,2013-02-23 06:31:00,
2013-02-23 00:36:00,22.1,15.1,30.06,SE,135,5.0,5.0,74,0.00,,,0.00,meteohub,2013-02-23 06:36:00,
2013-02-23 00:41:00,22.1,15.1,30.06,SE,135,3.0,5.0,74,0.00,,,0.00,meteohub,2013-02-23 06:41:00,
2013-02-23 00:46:00,21.9,14.9,30.06,SE,135,4.0,5.0,74,0.00,,,0.00,meteohub,2013-02-23 06:46:00,
2013-02-23 00:51:00,21.9,14.9,30.06,SE,135,4.0,5.0,74,0.00,,,0.00,meteohub,2013-02-23 06:51:00,
2013-02-23 00:56:00,21.9,14.9,30.05,ESE,113,5.0,6.0,74,0.00,,,0.00,meteohub,2013-02-23 06:56:00,
2013-02-23 01:01:00,21.9,14.9,30.06,ESE,113,4.0,6.0,74,0.00,,,0.00,meteohub,2013-02-23 07:01:00,
2013-02-23 01:06:00,21.9,14.9,30.06,SSE,158,3.0,7.0,74,0.00,,,0.00,meteohub,2013-02-23 07:06:00,
2013-02-23 01:11:00,21.9,15.3,30.06,East,90,3.0,7.0,75,0.00,,,0.00,meteohub,2013-02-23 07:11:00,
2013-02-23 01:16:00,21.7,15.1,30.06,SSE,158,4.0,7.0,75,0.00,,,0.00,meteohub,2013-02-23 07:16:00,
2013-02-23 01:22:00,21.7,15.1,30.05,East,90,6.0,6.0,75,0.00,,,0.00,meteohub,2013-02-23 07:22:00,
2013-02-23 01:27:00,21.7,15.1,30.06,SE,135,6.0,6.0,75,0.00,,,0.00,meteohub,2013-02-23 07:27:00,
2013-02-23 01:32:00,21.7,15.1,30.05,East,90,4.0,6.0,75,0.00,,,0.00,meteohub,2013-02-23 07:32:00,
2013-02-23 01:37:00,21.7,15.1,30.05,SE,135,2.0,6.0,75,0.00,,,0.00,meteohub,2013-02-23 07:37:00,
2013-02-23 01:42:00,21.7,15.1,30.05,SE,135,4.0,6.0,75,0.00,,,0.00,meteohub,2013-02-23 07:42:00,
2013-02-23 01:47:00,21.7,15.1,30.05,SE,135,6.0,6.0,75,0.00,,,0.00,meteohub,2013-02-23 07:47:00,
2013-02-23 01:52:00,21.9,15.3,30.05,ESE,113,6.0,6.0,75,0.00,,,0.00,meteohub,2013-02-23 07:52:00,
2013-02-23 01:57:00,21.9,15.3,30.05,SE,135,4.0,7.0,75,0.00,,,0.00,meteohub,2013-02-23 07:57:00,
2013-02-23 02:02:00,21.9,15.3,30.06,SE,135,2.0,7.0,75,0.00,,,0.00,meteohub,2013-02-23 08:02:00,
2013-02-23 02:07:00,21.9,15.3,30.05,SE,135,2.0,7.0,75,0.00,,,0.00,meteohub,2013-02-23 08:07:00,
2013-02-23 02:12:00,21.9,15.3,30.05,East,90,4.0,5.0,75,0.00,,,0.00,meteohub,2013-02-23 08:12:00,
2013-02-23 02:17:00,22.1,15.4,30.06,East,90,4.0,6.0,75,0.00,,,0.00,meteohub,2013-02-23 08:17:00,
2013-02-23 02:22:00,22.1,15.4,30.05,SE,135,2.0,6.0,75,0.00,,,0.00,meteohub,2013-02-23 08:22:00,
2013-02-23 02:27:00,22.1,15.4,30.06,SE,135,4.0,6.0,75,0.00,,,0.00,meteohub,2013-02-23 08:27:00,
2013-02-23 02:32:00,22.1,15.4,30.05,SE,135,3.0,5.0,75,0.00,,,0.00,meteohub,2013-02-23 08:32:00,
2013-02-23 02:37:00,22.1,15.1,30.05,SE,135,3.0,4.0,74,0.00,,,0.00,meteohub,2013-02-23 08:37:00,
2013-02-23 02:42:00,21.9,14.9,30.05,ESE,113,3.0,4.0,74,0.00,,,0.00,meteohub,2013-02-23 08:42:00,
2013-02-23 02:47:00,21.9,14.9,30.05,SE,135,4.0,4.0,74,0.00,,,0.00,meteohub,2013-02-23 08:47:00,
2013-02-23 02:52:00,21.9,14.9,30.05,ENE,68,4.0,4.0,74,0.00,,,0.00,meteohub,2013-02-23 08:52:00,
2013-02-23 02:57:00,21.9,14.9,30.05,East,90,3.0,6.0,74,0.00,,,0.00,meteohub,2013-02-23 08:57:00,
2013-02-23 03:02:00,21.9,14.9,30.05,East,90,5.0,7.0,74,0.00,,,0.00,meteohub,2013-02-23 09:02:00,
2013-02-23 03:07:00,21.6,14.5,30.05,NE,45,4.0,7.0,74,0.00,,,0.00,meteohub,2013-02-23 09:07:00,
2013-02-23 03:12:00,21.2,14.2,30.04,East,90,3.0,7.0,74,0.00,,,0.00,meteohub,2013-02-23 09:12:00,
2013-02-23 03:17:00,21.0,14.4,30.05,ESE,113,3.0,6.0,75,0.00,,,0.00,meteohub,2013-02-23 09:17:00,
2013-02-23 03:22:00,21.2,14.2,30.05,SE,135,5.0,7.0,74,0.00,,,0.00,meteohub,2013-02-23 09:22:00,
2013-02-23 03:27:00,21.2,14.2,30.05,SE,135,4.0,7.0,74,0.00,,,0.00,meteohub,2013-02-23 09:27:00,
2013-02-23 03:32:00,21.2,14.2,30.04,SE,135,3.0,7.0,74,0.00,,,0.00,meteohub,2013-02-23 09:32:00,
2013-02-23 03:37:00,21.2,14.2,30.04,ESE,113,4.0,6.0,74,0.00,,,0.00,meteohub,2013-02-23 09:37:00,
2013-02-23 03:42:00,21.2,14.2,30.05,SE,135,4.0,6.0,74,0.00,,,0.00,meteohub,2013-02-23 09:42:00,
2013-02-23 03:47:00,21.2,14.2,30.04,SE,135,5.0,5.0,74,0.00,,,0.00,meteohub,2013-02-23 09:47:00,
2013-02-23 03:52:00,21.2,14.2,30.04,SE,135,4.0,5.0,74,0.00,,,0.00,meteohub,2013-02-23 09:52:00,
2013-02-23 03:57:00,21.2,14.2,30.04,SE,135,4.0,5.0,74,0.00,,,0.00,meteohub,2013-02-23 09:57:00,
2013-02-23 04:02:00,21.0,14.4,30.04,SE,135,4.0,5.0,75,0.00,,,0.00,meteohub,2013-02-23 10:02:00,
2013-02-23 04:07:00,21.0,14.4,30.04,SE,135,4.0,5.0,75,0.00,,,0.00,meteohub,2013-02-23 10:07:00,
2013-02-23 04:12:00,20.8,14.2,30.04,SE,135,4.0,5.0,75,0.00,,,0.00,meteohub,2013-02-23 10:12:00,
2013-02-23 04:17:00,20.8,14.2,30.04,SE,135,4.0,5.0,75,0.00,,,0.00,meteohub,2013-02-23 10:17:00,
2013-02-23 04:22:00,20.8,14.2,30.05,East,90,3.0,5.0,75,0.00,,,0.00,meteohub,2013-02-23 10:22:00,
2013-02-23 04:27:00,20.7,13.6,30.05,SE,135,6.0,9.0,74,0.00,,,0.00,meteohub,2013-02-23 10:27:00,
2013-02-23 04:32:00,20.7,13.6,30.05,SE,135,4.0,9.0,74,0.00,,,0.00,meteohub,2013-02-23 10:32:00,
2013-02-23 04:37:00,20.5,13.5,30.04,ENE,68,4.0,9.0,74,0.00,,,0.00,meteohub,2013-02-23 10:37:00,
2013-02-23 04:42:00,20.5,13.5,30.05,SE,135,5.0,9.0,74,0.00,,,0.00,meteohub,2013-02-23 10:42:00,
2013-02-23 04:47:00,20.3,13.3,30.05,SE,135,6.0,7.0,74,0.00,,,0.00,meteohub,2013-02-23 10:47:00,
2013-02-23 04:52:00,20.1,13.1,30.05,SE,135,5.0,7.0,74,0.00,,,0.00,meteohub,2013-02-23 10:52:00,
2013-02-23 04:57:00,20.1,13.1,30.05,East,90,8.0,8.0,74,0.00,,,0.00,meteohub,2013-02-23 10:57:00,
2013-02-23 05:02:00,19.9,12.9,30.05,SSE,158,7.0,8.0,74,0.00,,,0.00,meteohub,2013-02-23 11:02:00,
2013-02-23 05:07:00,19.9,12.9,30.05,SE,135,5.0,8.0,74,0.00,,,0.00,meteohub,2013-02-23 11:07:00,
2013-02-23 05:12:00,19.9,12.9,30.05,SE,135,7.0,8.0,74,0.00,,,0.00,meteohub,2013-02-23 11:12:00,
2013-02-23 05:17:00,19.9,12.9,30.05,SE,135,5.0,8.0,74,0.00,,,0.00,meteohub,2013-02-23 11:17:00,
2013-02-23 05:22:00,19.8,12.7,30.05,South,180,4.0,8.0,74,0.00,,,0.00,meteohub,2013-02-23 11:22:00,
2013-02-23 05:27:00,19.8,12.7,30.05,SE,135,2.0,8.0,74,0.00,,,0.00,meteohub,2013-02-23 11:27:00,
2013-02-23 05:32:00,19.8,12.7,30.05,SE,135,2.0,7.0,74,0.00,,,0.00,meteohub,2013-02-23 11:32:00,
2013-02-23 05:37:00,19.8,12.7,30.05,SE,135,3.0,6.0,74,0.00,,,0.00,meteohub,2013-02-23 11:37:00,
2013-02-23 05:42:00,19.8,12.7,30.05,SE,135,4.0,5.0,74,0.00,,,0.00,meteohub,2013-02-23 11:42:00,
2013-02-23 05:47:00,19.8,12.7,30.05,East,90,4.0,5.0,74,0.00,,,0.00,meteohub,2013-02-23 11:47:00,
2013-02-23 05:52:00,19.8,12.7,30.05,East,90,4.0,5.0,74,0.00,,,0.00,meteohub,2013-02-23 11:52:00,
2013-02-23 05:57:00,19.8,12.7,30.05,East,90,5.0,5.0,74,0.00,,,0.00,meteohub,2013-02-23 11:57:00,
2013-02-23 06:02:00,19.8,12.7,30.04,East,90,4.0,7.0,74,0.00,,,0.00,meteohub,2013-02-23 12:02:00,
2013-02-23 06:07:00,19.8,12.7,30.05,East,90,4.0,7.0,74,0.00,,,0.00,meteohub,2013-02-23 12:07:00,
2013-02-23 06:12:00,19.8,12.7,30.05,South,180,2.0,7.0,74,0.00,,,0.00,meteohub,2013-02-23 12:12:00,
2013-02-23 06:17:00,19.9,12.9,30.05,SE,135,4.0,5.0,74,0.00,,,0.00,meteohub,2013-02-23 12:17:00,
2013-02-23 06:22:00,19.9,12.9,30.06,SE,135,2.0,6.0,74,0.00,,,0.00,meteohub,2013-02-23 12:22:00,
2013-02-23 06:27:00,19.9,12.9,30.06,South,180,3.0,6.0,74,0.00,,,0.00,meteohub,2013-02-23 12:27:00,
2013-02-23 06:32:00,19.9,12.9,30.06,ESE,113,5.0,6.0,74,0.00,,,0.00,meteohub,2013-02-23 12:32:00,
2013-02-23 06:37:00,19.9,12.9,30.05,SE,135,6.0,6.0,74,0.00,,,0.00,meteohub,2013-02-23 12:37:00,
2013-02-23 06:42:00,19.9,12.9,30.06,ESE,113,2.0,6.0,74,0.00,,,0.00,meteohub,2013-02-23 12:42:00,
2013-02-23 06:47:00,19.9,12.9,30.06,SE,135,2.0,6.0,74,0.00,,,0.00,meteohub,2013-02-23 12:47:00,
2013-02-23 06:52:00,20.1,13.1,30.06,SE,135,4.0,6.0,74,0.00,,,0.00,meteohub,2013-02-23 12:52:00,
2013-02-23 06:57:00,20.1,13.1,30.06,SE,135,4.0,4.0,74,0.00,,,0.00,meteohub,2013-02-23 12:57:00,
2013-02-23 07:02:00,20.1,13.5,30.06,SE,135,4.0,6.0,75,0.00,,,0.00,meteohub,2013-02-23 13:02:00,
2013-02-23 07:07:00,20.1,13.5,30.05,East,90,8.0,8.0,75,0.00,,,0.00,meteohub,2013-02-23 13:07:00,
2013-02-23 07:12:00,20.1,13.5,30.06,SE,135,5.0,8.0,75,0.00,,,0.00,meteohub,2013-02-23 13:12:00,
2013-02-23 07:18:00,20.3,13.6,30.06,SE,135,9.0,9.0,75,0.00,,,0.00,meteohub,2013-02-23 13:18:00,
2013-02-23 07:23:00,20.3,13.6,30.06,SSE,158,5.0,9.0,75,0.00,,,0.00,meteohub,2013-02-23 13:23:00,
2013-02-23 07:28:00,20.3,13.6,30.06,East,90,5.0,9.0,75,0.00,,,0.00,meteohub,2013-02-23 13:28:00,
2013-02-23 07:33:00,20.3,13.6,30.06,SSE,158,4.0,9.0,75,0.00,,,0.00,meteohub,2013-02-23 13:33:00,
2013-02-23 07:38:00,20.5,13.8,30.06,East,90,4.0,8.0,75,0.00,,,0.00,meteohub,2013-02-23 13:38:00,
2013-02-23 07:43:00,20.5,13.8,30.06,SE,135,3.0,8.0,75,0.00,,,0.00,meteohub,2013-02-23 13:43:00,
2013-02-23 07:48:00,20.5,13.8,30.06,SE,135,4.0,8.0,75,0.00,,,0.00,meteohub,2013-02-23 13:48:00,
2013-02-23 07:53:00,20.7,14.4,30.06,South,180,5.0,6.0,76,0.00,,,0.00,meteohub,2013-02-23 13:53:00,
2013-02-23 07:58:00,20.7,14.4,30.06,SE,135,3.0,6.0,76,0.00,,,0.00,meteohub,2013-02-23 13:58:00,
2013-02-23 08:03:00,20.7,14.4,30.06,South,180,2.0,6.0,76,0.00,,,0.00,meteohub,2013-02-23 14:03:00,
2013-02-23 08:08:00,21.0,14.7,30.06,East,90,3.0,6.0,76,0.00,,,0.00,meteohub,2013-02-23 14:08:00,
2013-02-23 08:13:00,21.2,14.5,30.06,South,180,5.0,5.0,75,0.00,,,0.00,meteohub,2013-02-23 14:13:00,
2013-02-23 08:18:00,21.4,14.7,30.06,South,180,4.0,7.0,75,0.00,,,0.00,meteohub,2013-02-23 14:18:00,
2013-02-23 08:23:00,21.6,14.9,30.06,South,180,3.0,7.0,75,0.00,,,0.00,meteohub,2013-02-23 14:23:00,
2013-02-23 08:28:00,21.9,15.4,30.06,SSE,158,3.0,7.0,76,0.00,,,0.00,meteohub,2013-02-23 14:28:00,
2013-02-23 08:33:00,22.1,15.6,30.06,SE,135,4.0,5.0,76,0.00,,,0.00,meteohub,2013-02-23 14:33:00,
2013-02-23 08:38:00,22.5,16.0,30.06,SE,135,5.0,5.0,76,0.00,,,0.00,meteohub,2013-02-23 14:38:00,
2013-02-23 08:43:00,22.5,16.0,30.06,SSE,158,4.0,4.0,76,0.00,,,0.00,meteohub,2013-02-23 14:43:00,
2013-02-23 08:49:00,22.5,16.0,30.06,SE,135,3.0,5.0,76,0.00,,,0.00,meteohub,2013-02-23 14:49:00,
2013-02-23 08:54:00,22.6,16.2,30.05,South,180,2.0,5.0,76,0.00,,,0.00,meteohub,2013-02-23 14:54:00,
2013-02-23 08:59:00,22.8,16.3,30.06,SE,135,4.0,5.0,76,0.00,,,0.00,meteohub,2013-02-23 14:59:00,
2013-02-23 09:04:00,23.0,16.3,30.06,South,180,5.0,5.0,75,0.00,,,0.00,meteohub,2013-02-23 15:04:00,
2013-02-23 09:09:00,23.0,16.0,30.06,SE,135,5.0,5.0,74,0.00,,,0.00,meteohub,2013-02-23 15:09:00,
2013-02-23 09:14:00,23.0,16.0,30.06,South,180,2.0,6.0,74,0.00,,,0.00,meteohub,2013-02-23 15:14:00,
2013-02-23 09:19:00,23.4,16.7,30.06,SE,135,3.0,6.0,75,0.00,,,0.00,meteohub,2013-02-23 15:19:00,
2013-02-23 09:24:00,23.5,16.7,30.06,SE,135,4.0,6.0,75,0.00,,,0.00,meteohub,2013-02-23 15:24:00,
2013-02-23 09:29:00,23.9,17.1,30.06,SE,135,2.0,4.0,75,0.00,,,0.00,meteohub,2013-02-23 15:29:00,
2013-02-23 09:34:00,23.9,17.1,30.06,SE,135,1.0,4.0,75,0.00,,,0.00,meteohub,2013-02-23 15:34:00,
2013-02-23 09:39:00,24.3,17.4,30.06,SE,135,2.0,4.0,75,0.00,,,0.00,meteohub,2013-02-23 15:39:00,
2013-02-23 09:44:00,24.6,17.8,30.06,SE,135,3.0,4.0,75,0.00,,,0.00,meteohub,2013-02-23 15:44:00,
2013-02-23 09:49:00,25.2,18.0,30.06,SE,135,4.0,4.0,74,0.00,,,0.00,meteohub,2013-02-23 15:49:00,
2013-02-23 09:54:00,25.3,18.1,30.06,SE,135,4.0,4.0,74,0.00,,,0.00,meteohub,2013-02-23 15:54:00,
2013-02-23 09:59:00,25.9,18.5,30.06,SE,135,4.0,6.0,73,0.00,,,0.00,meteohub,2013-02-23 15:59:00,
2013-02-23 10:04:00,25.9,18.5,30.07,SE,135,4.0,6.0,73,0.00,,,0.00,meteohub,2013-02-23 16:04:00,
2013-02-23 10:09:00,27.0,19.2,30.06,SE,135,2.0,6.0,72,0.00,,,0.00,meteohub,2013-02-23 16:09:00,
2013-02-23 10:14:00,27.1,19.0,30.07,ESE,113,3.0,4.0,71,0.00,,,0.00,meteohub,2013-02-23 16:14:00,
2013-02-23 10:19:00,27.0,18.5,30.07,South,180,4.0,4.0,70,0.00,,,0.00,meteohub,2013-02-23 16:19:00,
2013-02-23 10:24:00,27.1,18.3,30.07,SE,135,6.0,6.0,69,0.00,,,0.00,meteohub,2013-02-23 16:24:00,
2013-02-23 10:30:00,26.6,17.8,30.07,SE,135,3.0,6.0,69,0.00,,,0.00,meteohub,2013-02-23 16:30:00,
2013-02-23 10:35:00,26.6,17.8,30.07,East,90,5.0,6.0,69,0.00,,,0.00,meteohub,2013-02-23 16:35:00,
2013-02-23 10:40:00,26.4,18.0,30.07,East,90,8.0,8.0,70,0.00,,,0.00,meteohub,2013-02-23 16:40:00,
2013-02-23 10:45:00,25.7,16.5,30.07,SE,135,4.0,7.0,68,0.00,,,0.00,meteohub,2013-02-23 16:45:00,
2013-02-23 10:50:00,25.5,16.5,30.07,East,90,6.0,8.0,68,0.00,,,0.00,meteohub,2013-02-23 16:50:00,
2013-02-23 10:55:00,25.3,16.0,30.07,SE,135,5.0,8.0,67,0.00,,,0.00,meteohub,2013-02-23 16:55:00,
2013-02-23 11:00:00,25.7,16.3,30.07,SE,135,4.0,8.0,67,0.00,,,0.00,meteohub,2013-02-23 17:00:00,
2013-02-23 11:05:00,26.1,16.9,30.06,East,90,3.0,8.0,68,0.00,,,0.00,meteohub,2013-02-23 17:05:00,
2013-02-23 11:10:00,26.8,16.9,30.07,SE,135,5.0,7.0,66,0.00,,,0.00,meteohub,2013-02-23 17:10:00,
2013-02-23 11:15:00,27.0,17.1,30.07,East,90,7.0,7.0,66,0.00,,,0.00,meteohub,2013-02-23 17:15:00,
2013-02-23 11:20:00,27.0,16.7,30.07,East,90,7.0,7.0,65,0.00,,,0.00,meteohub,2013-02-23 17:20:00,
2013-02-23 11:25:00,27.3,16.7,30.07,SSE,158,4.0,7.0,64,0.00,,,0.00,meteohub,2013-02-23 17:25:00,
2013-02-23 11:30:00,27.9,17.2,30.07,SE,135,3.0,7.0,64,0.00,,,0.00,meteohub,2013-02-23 17:30:00,
2013-02-23 11:35:00,28.8,19.6,30.07,NE,45,4.0,7.0,68,0.00,,,0.00,meteohub,2013-02-23 17:35:00,
2013-02-23 11:40:00,29.7,20.1,30.06,ESE,113,3.0,7.0,67,0.00,,,0.00,meteohub,2013-02-23 17:40:00,
2013-02-23 11:45:00,29.1,19.2,30.06,SE,135,4.0,7.0,66,0.00,,,0.00,meteohub,2013-02-23 17:45:00,
2013-02-23 11:50:00,29.8,19.9,30.06,NE,45,4.0,7.0,66,0.00,,,0.00,meteohub,2013-02-23 17:50:00,
2013-02-23 11:55:00,30.4,19.9,30.06,SE,135,2.0,6.0,65,0.00,,,0.00,meteohub,2013-02-23 17:55:00,
2013-02-23 12:00:00,30.6,20.1,30.06,SW,225,5.0,5.0,65,0.00,,,0.00,meteohub,2013-02-23 18:00:00,
2013-02-23 12:05:00,30.6,20.1,30.06,SW,225,5.0,5.0,65,0.00,,,0.00,meteohub,2013-02-23 18:05:00,
2013-02-23 12:10:00,30.0,19.8,30.07,SE,135,5.0,8.0,65,0.00,,,0.00,meteohub,2013-02-23 18:10:00,
2013-02-23 12:15:00,30.7,20.3,30.07,SE,135,7.0,8.0,65,0.00,,,0.00,meteohub,2013-02-23 18:15:00,
2013-02-23 12:20:00,30.9,20.1,30.06,South,180,4.0,8.0,64,0.00,,,0.00,meteohub,2013-02-23 18:20:00,
2013-02-23 12:25:00,31.3,20.1,30.07,South,180,4.0,7.0,63,0.00,,,0.00,meteohub,2013-02-23 18:25:00,
2013-02-23 12:30:00,31.5,20.3,30.06,East,90,6.0,7.0,63,0.00,,,0.00,meteohub,2013-02-23 18:30:00,
2013-02-23 12:35:00,31.1,19.9,30.06,SE,135,4.0,6.0,63,0.00,,,0.00,meteohub,2013-02-23 18:35:00,
2013-02-23 12:40:00,31.1,19.9,30.06,East,90,4.0,8.0,63,0.00,,,0.00,meteohub,2013-02-23 18:40:00,
2013-02-23 12:46:00,31.1,19.9,30.06,SE,135,9.0,9.0,63,0.00,,,0.00,meteohub,2013-02-23 18:46:00,
2013-02-23 12:51:00,30.7,19.2,30.06,SE,135,6.0,9.0,62,0.00,,,0.00,meteohub,2013-02-23 18:51:00,
2013-02-23 12:56:00,31.1,19.6,30.06,SE,135,4.0,9.0,62,0.00,,,0.00,meteohub,2013-02-23 18:56:00,
2013-02-23 13:01:00,31.3,19.8,30.06,SE,135,5.0,9.0,62,0.00,,,0.00,meteohub,2013-02-23 19:01:00,
2013-02-23 13:06:00,30.7,18.5,30.06,East,90,8.0,12.0,60,0.00,,,0.00,meteohub,2013-02-23 19:06:00,
2013-02-23 13:11:00,30.2,17.2,30.05,East,90,9.0,12.0,58,0.00,,,0.00,meteohub,2013-02-23 19:11:00,
2013-02-23 13:16:00,30.2,17.2,30.05,East,90,9.0,12.0,58,0.00,,,0.00,meteohub,2013-02-23 19:16:00,
2013-02-23 13:21:00,29.7,17.1,30.05,North,0,5.0,11.0,59,0.01,,,0.01,meteohub,2013-02-23 19:21:00,
2013-02-23 13:26:00,29.8,17.6,30.06,SE,135,6.0,11.0,60,0.01,,,0.01,meteohub,2013-02-23 19:26:00,
2013-02-23 13:31:00,30.6,18.3,30.06,ENE,68,7.0,10.0,60,0.01,,,0.01,meteohub,2013-02-23 19:31:00,
2013-02-23 13:36:00,30.9,18.7,30.06,East,90,6.0,9.0,60,0.01,,,0.01,meteohub,2013-02-23 19:36:00,
2013-02-23 13:41:00,31.5,18.9,30.05,SE,135,5.0,9.0,59,0.01,,,0.01,meteohub,2013-02-23 19:41:00,
2013-02-23 13:46:00,31.1,18.5,30.05,SE,135,8.0,8.0,59,0.01,,,0.01,meteohub,2013-02-23 19:46:00,
2013-02-23 13:51:00,31.1,18.5,30.05,NE,45,8.0,8.0,59,0.01,,,0.01,meteohub,2013-02-23 19:51:00,
2013-02-23 13:56:00,32.4,19.6,30.06,SE,135,8.0,8.0,59,0.01,,,0.01,meteohub,2013-02-23 19:56:00,
2013-02-23 14:01:00,32.4,18.9,30.05,ENE,68,9.0,11.0,57,0.01,,,0.01,meteohub,2013-02-23 20:01:00,
2013-02-23 14:06:00,32.4,18.9,30.05,ENE,68,9.0,11.0,57,0.01,,,0.01,meteohub,2013-02-23 20:06:00,
2013-02-23 14:11:00,32.5,18.1,30.06,East,90,8.0,11.0,55,0.01,,,0.01,meteohub,2013-02-23 20:11:00,
2013-02-23 14:16:00,32.2,17.8,30.05,East,90,6.0,9.0,55,0.00,,,0.01,meteohub,2013-02-23 20:16:00,
2013-02-23 14:21:00,31.3,17.4,30.05,East,90,9.0,11.0,56,0.00,,,0.01,meteohub,2013-02-23 20:21:00,
2013-02-23 14:26:00,30.9,17.4,30.05,SE,135,4.0,11.0,57,0.00,,,0.01,meteohub,2013-02-23 20:26:00,
2013-02-23 14:31:00,31.3,18.1,30.05,SSE,158,5.0,11.0,58,0.00,,,0.01,meteohub,2013-02-23 20:31:00,
2013-02-23 14:36:00,31.1,18.1,30.05,SE,135,7.0,9.0,58,0.00,,,0.01,meteohub,2013-02-23 20:36:00,
2013-02-23 14:41:00,31.1,18.1,30.06,East,90,6.0,10.0,58,0.00,,,0.01,meteohub,2013-02-23 20:41:00,
2013-02-23 14:46:00,31.3,18.1,30.05,East,90,9.0,10.0,58,0.00,,,0.01,meteohub,2013-02-23 20:46:00,
2013-02-23 14:51:00,31.6,18.5,30.05,East,90,8.0,9.0,58,0.00,,,0.01,meteohub,2013-02-23 20:51:00,
2013-02-23 14:56:00,31.6,18.1,30.05,East,90,8.0,11.0,57,0.00,,,0.01,meteohub,2013-02-23 20:56:00,
2013-02-23 15:02:00,31.5,18.0,30.05,East,90,8.0,11.0,57,0.00,,,0.01,meteohub,2013-02-23 21:02:00,
2013-02-23 15:07:00,30.6,17.1,30.05,East,90,10.0,10.0,57,0.00,,,0.01,meteohub,2013-02-23 21:07:00,
2013-02-23 15:12:00,30.0,17.4,30.05,NE,45,9.0,11.0,59,0.00,,,0.01,meteohub,2013-02-23 21:12:00,
2013-02-23 15:17:00,30.0,18.1,30.05,East,90,8.0,11.0,61,0.00,,,0.01,meteohub,2013-02-23 21:17:00,
2013-02-23 15:22:00,30.2,18.3,30.06,East,90,10.0,11.0,61,0.00,,,0.01,meteohub,2013-02-23 21:22:00,
2013-02-23 15:27:00,29.7,18.3,30.06,East,90,10.0,11.0,62,0.00,,,0.01,meteohub,2013-02-23 21:27:00,
2013-02-23 15:32:00,29.8,18.5,30.06,SE,135,11.0,14.0,62,0.00,,,0.01,meteohub,2013-02-23 21:32:00,
2013-02-23 15:37:00,29.5,18.5,30.06,East,90,11.0,14.0,63,0.00,,,0.01,meteohub,2013-02-23 21:37:00,
2013-02-23 15:42:00,29.5,18.5,30.06,East,90,12.0,14.0,63,0.00,,,0.01,meteohub,2013-02-23 21:42:00,
2013-02-23 15:47:00,30.2,18.7,30.06,East,90,9.0,12.0,62,0.00,,,0.01,meteohub,2013-02-23 21:47:00,
2013-02-23 15:52:00,30.9,19.4,30.06,NE,45,11.0,12.0,62,0.00,,,0.01,meteohub,2013-02-23 21:52:00,
2013-02-23 15:57:00,30.7,18.9,30.06,SE,135,5.0,12.0,61,0.00,,,0.01,meteohub,2013-02-23 21:57:00,
2013-02-23 16:02:00,30.7,18.9,30.06,NE,45,10.0,12.0,61,0.00,,,0.01,meteohub,2013-02-23 22:02:00,
2013-02-23 16:07:00,30.7,18.9,30.06,NE,45,10.0,11.0,61,0.00,,,0.01,meteohub,2013-02-23 22:07:00,
2013-02-23 16:12:00,29.5,18.1,30.06,SE,135,11.0,11.0,62,0.00,,,0.01,meteohub,2013-02-23 22:12:00,
2013-02-23 16:17:00,29.5,18.1,30.07,East,90,6.0,14.0,62,0.00,,,0.01,meteohub,2013-02-23 22:17:00,
2013-02-23 16:22:00,29.7,18.7,30.06,SSE,158,8.0,14.0,63,0.00,,,0.01,meteohub,2013-02-23 22:22:00,
2013-02-23 16:27:00,29.1,17.8,30.07,ENE,68,9.0,14.0,62,0.00,,,0.01,meteohub,2013-02-23 22:27:00,
2013-02-23 16:32:00,28.4,17.4,30.07,SE,135,6.0,11.0,63,0.00,,,0.01,meteohub,2013-02-23 22:32:00,
2013-02-23 16:37:00,28.2,15.8,30.07,ESE,113,4.0,11.0,59,0.00,,,0.01,meteohub,2013-02-23 22:37:00,
2013-02-23 16:42:00,28.2,15.8,30.07,East,90,9.0,11.0,59,0.00,,,0.01,meteohub,2013-02-23 22:42:00,
2013-02-23 16:47:00,27.7,15.3,30.07,ESE,113,8.0,10.0,59,0.00,,,0.01,meteohub,2013-02-23 22:47:00,
2013-02-23 16:52:00,27.3,14.9,30.07,East,90,4.0,10.0,59,0.00,,,0.01,meteohub,2013-02-23 22:52:00,
2013-02-23 16:57:00,27.1,15.1,30.07,SE,135,8.0,11.0,60,0.00,,,0.01,meteohub,2013-02-23 22:57:00,
2013-02-23 17:02:00,27.1,15.1,30.07,East,90,5.0,11.0,60,0.00,,,0.01,meteohub,2013-02-23 23:02:00,
2013-02-23 17:07:00,27.0,14.9,30.07,SE,135,6.0,11.0,60,0.00,,,0.01,meteohub,2013-02-23 23:07:00,
2013-02-23 17:12:00,27.0,15.3,30.07,East,90,7.0,8.0,61,0.00,,,0.01,meteohub,2013-02-23 23:12:00,
2013-02-23 17:17:00,26.6,14.9,30.07,East,90,5.0,8.0,61,0.00,,,0.01,meteohub,2013-02-23 23:17:00,
2013-02-23 17:22:00,26.1,14.9,30.07,East,90,6.0,8.0,62,0.00,,,0.01,meteohub,2013-02-23 23:22:00,
2013-02-23 17:27:00,25.7,14.5,30.08,ENE,68,8.0,8.0,62,0.00,,,0.01,meteohub,2013-02-23 23:27:00,
2013-02-23 17:32:00,25.3,14.5,30.08,East,90,5.0,9.0,63,0.00,,,0.01,meteohub,2013-02-23 23:32:00,
2013-02-23 17:37:00,25.3,14.9,30.08,East,90,10.0,10.0,64,0.00,,,0.01,meteohub,2013-02-23 23:37:00,
2013-02-23 17:42:00,25.2,14.7,30.08,ENE,68,4.0,10.0,64,0.00,,,0.01,meteohub,2013-02-23 23:42:00,
2013-02-23 17:47:00,25.2,15.1,30.08,SE,135,4.0,10.0,65,0.00,,,0.01,meteohub,2013-02-23 23:47:00,
2013-02-23 17:52:00,25.2,15.1,30.08,NE,45,5.0,10.0,65,0.00,,,0.01,meteohub,2013-02-23 23:52:00,
2013-02-23 17:57:00,24.8,14.7,30.08,East,90,6.0,9.0,65,0.00,,,0.01,meteohub,2013-02-23 23:57:00,
2013-02-23 18:02:00,24.8,14.7,30.08,SE,135,6.0,9.0,65,0.00,,,0.01,meteohub,2013-02-24 00:02:00,
2013-02-23 18:07:00,24.8,14.7,30.09,SE,135,6.0,9.0,65,0.00,,,0.00,meteohub,2013-02-24 00:07:00,
2013-02-23 18:12:00,24.6,15.3,30.09,NE,45,8.0,8.0,67,0.00,,,0.00,meteohub,2013-02-24 00:12:00,
2013-02-23 18:17:00,24.4,15.1,30.09,East,90,10.0,10.0,67,0.00,,,0.00,meteohub,2013-02-24 00:17:00,
2013-02-23 18:22:00,24.3,14.9,30.09,SW,225,5.0,10.0,67,0.00,,,0.00,meteohub,2013-02-24 00:22:00,
2013-02-23 18:27:00,24.3,14.9,30.09,East,90,5.0,10.0,67,0.00,,,0.00,meteohub,2013-02-24 00:27:00,
2013-02-23 18:32:00,24.1,14.7,30.09,SE,135,8.0,10.0,67,0.00,,,0.00,meteohub,2013-02-24 00:32:00,
2013-02-23 18:37:00,23.9,14.2,30.10,SE,135,4.0,8.0,66,0.00,,,0.00,meteohub,2013-02-24 00:37:00,
2013-02-23 18:42:00,23.7,14.0,30.10,SE,135,6.0,9.0,66,0.00,,,0.00,meteohub,2013-02-24 00:42:00,
2013-02-23 18:47:00,23.7,14.0,30.11,East,90,4.0,9.0,66,0.00,,,0.00,meteohub,2013-02-24 00:47:00,
2013-02-23 18:52:00,23.5,13.8,30.11,SE,135,6.0,9.0,66,0.00,,,0.00,meteohub,2013-02-24 00:52:00,
2013-02-23 18:57:00,23.5,13.8,30.11,South,180,4.0,8.0,66,0.00,,,0.00,meteohub,2013-02-24 00:57:00,
2013-02-23 19:02:00,23.5,13.8,30.11,East,90,4.0,7.0,66,0.00,,,0.00,meteohub,2013-02-24 01:02:00,
2013-02-23 19:07:00,23.5,13.8,30.11,East,90,6.0,8.0,66,0.00,,,0.00,meteohub,2013-02-24 01:07:00,
2013-02-23 19:12:00,23.4,13.6,30.11,SE,135,4.0,8.0,66,0.00,,,0.00,meteohub,2013-02-24 01:12:00,
2013-02-23 19:17:00,23.4,13.6,30.12,East,90,4.0,8.0,66,0.00,,,0.00,meteohub,2013-02-24 01:17:00,
2013-02-23 19:22:00,23.2,13.5,30.11,SE,135,8.0,8.0,66,0.00,,,0.00,meteohub,2013-02-24 01:22:00,
2013-02-23 19:27:00,23.2,13.5,30.12,SE,135,6.0,8.0,66,0.00,,,0.00,meteohub,2013-02-24 01:27:00,
2013-02-23 19:32:00,23.0,13.3,30.12,East,90,2.0,8.0,66,0.00,,,0.00,meteohub,2013-02-24 01:32:00,
2013-02-23 19:37:00,23.0,13.3,30.12,SE,135,4.0,8.0,66,0.00,,,0.00,meteohub,2013-02-24 01:37:00,
2013-02-23 19:42:00,23.0,13.3,30.11,East,90,4.0,8.0,66,0.00,,,0.00,meteohub,2013-02-24 01:42:00,
2013-02-23 19:47:00,22.8,13.5,30.11,East,90,2.0,6.0,67,0.00,,,0.00,meteohub,2013-02-24 01:47:00,
2013-02-23 19:52:00,22.8,13.5,30.12,SE,135,4.0,6.0,67,0.00,,,0.00,meteohub,2013-02-24 01:52:00,
2013-02-23 19:57:00,22.6,13.3,30.11,ESE,113,6.0,6.0,67,0.00,,,0.00,meteohub,2013-02-24 01:57:00,
2013-02-23 20:02:00,22.6,13.3,30.11,East,90,3.0,7.0,67,0.00,,,0.00,meteohub,2013-02-24 02:02:00,
2013-02-23 20:07:00,22.6,13.3,30.12,East,90,3.0,7.0,67,0.00,,,0.00,meteohub,2013-02-24 02:07:00,
2013-02-23 20:12:00,22.5,13.5,30.12,East,90,1.0,6.0,68,0.00,,,0.00,meteohub,2013-02-24 02:12:00,
2013-02-23 20:17:00,22.5,13.5,30.12,East,90,4.0,4.0,68,0.00,,,0.00,meteohub,2013-02-24 02:17:00,
2013-02-23 20:22:00,22.6,13.6,30.12,SE,135,3.0,4.0,68,0.00,,,0.00,meteohub,2013-02-24 02:22:00,
2013-02-23 20:27:00,22.6,13.6,30.12,ESE,113,3.0,4.0,68,0.00,,,0.00,meteohub,2013-02-24 02:27:00,
2013-02-23 20:32:00,22.6,13.6,30.12,SE,135,4.0,5.0,68,0.00,,,0.00,meteohub,2013-02-24 02:32:00,
2013-02-23 20:37:00,22.5,13.5,30.12,SE,135,2.0,5.0,68,0.00,,,0.00,meteohub,2013-02-24 02:37:00,
2013-02-23 20:42:00,22.5,13.5,30.12,South,180,1.0,5.0,68,0.00,,,0.00,meteohub,2013-02-24 02:42:00,
2013-02-23 20:47:00,22.6,13.6,30.12,SE,135,4.0,4.0,68,0.00,,,0.00,meteohub,2013-02-24 02:47:00,
2013-02-23 20:52:00,22.5,13.5,30.12,East,90,2.0,4.0,68,0.00,,,0.00,meteohub,2013-02-24 02:52:00,
2013-02-23 20:57:00,22.5,13.5,30.12,East,90,2.0,4.0,68,0.00,,,0.00,meteohub,2013-02-24 02:57:00,
2013-02-23 21:02:00,22.5,13.5,30.13,East,90,1.0,4.0,68,0.00,,,0.00,meteohub,2013-02-24 03:02:00,
2013-02-23 21:07:00,22.6,13.6,30.12,East,90,2.0,4.0,68,0.00,,,0.00,meteohub,2013-02-24 03:07:00,
2013-02-23 21:12:00,22.6,13.6,30.12,SE,135,0.0,3.0,68,0.00,,,0.00,meteohub,2013-02-24 03:12:00,
2013-02-23 21:17:00,22.6,13.6,30.12,SE,135,2.0,3.0,68,0.00,,,0.00,meteohub,2013-02-24 03:17:00,
2013-02-23 21:22:00,22.6,13.6,30.13,SE,135,2.0,3.0,68,0.00,,,0.00,meteohub,2013-02-24 03:22:00,
2013-02-23 21:27:00,22.6,13.6,30.12,SE,135,1.0,4.0,68,0.00,,,0.00,meteohub,2013-02-24 03:27:00,
2013-02-23 21:32:00,22.6,13.6,30.13,South,180,1.0,4.0,68,0.00,,,0.00,meteohub,2013-02-24 03:32:00,
2013-02-23 21:37:00,22.5,13.5,30.13,East,90,2.0,3.0,68,0.00,,,0.00,meteohub,2013-02-24 03:37:00,
2013-02-23 21:42:00,22.5,13.5,30.13,NE,45,2.0,2.0,68,0.00,,,0.00,meteohub,2013-02-24 03:42:00,
2013-02-23 21:47:00,22.5,13.5,30.13,SE,135,3.0,3.0,68,0.00,,,0.00,meteohub,2013-02-24 03:47:00,
2013-02-23 21:52:00,22.3,13.3,30.13,East,90,1.0,3.0,68,0.00,,,0.00,meteohub,2013-02-24 03:52:00,
2013-02-23 21:57:00,22.3,13.3,30.14,SE,135,4.0,4.0,68,0.00,,,0.00,meteohub,2013-02-24 03:57:00,
2013-02-23 22:02:00,22.3,13.3,30.13,SE,135,2.0,4.0,68,0.00,,,0.00,meteohub,2013-02-24 04:02:00,
2013-02-23 22:07:00,22.1,13.5,30.14,SE,135,4.0,4.0,69,0.00,,,0.00,meteohub,2013-02-24 04:07:00,
2013-02-23 22:12:00,21.9,13.3,30.14,SE,135,4.0,4.0,69,0.00,,,0.00,meteohub,2013-02-24 04:12:00,
2013-02-23 22:18:00,21.9,13.3,30.14,SE,135,3.0,5.0,69,0.00,,,0.00,meteohub,2013-02-24 04:18:00,
2013-02-23 22:23:00,21.7,12.7,30.14,East,90,4.0,5.0,68,0.00,,,0.00,meteohub,2013-02-24 04:23:00,
2013-02-23 22:28:00,21.6,12.6,30.14,ESE,113,4.0,5.0,68,0.00,,,0.00,meteohub,2013-02-24 04:28:00,
2013-02-23 22:33:00,21.4,12.4,30.15,SE,135,3.0,5.0,68,0.00,,,0.00,meteohub,2013-02-24 04:33:00,
2013-02-23 22:38:00,21.0,12.4,30.15,SE,135,2.0,5.0,69,0.00,,,0.00,meteohub,2013-02-24 04:38:00,
2013-02-23 22:43:00,20.8,12.2,30.15,SE,135,7.0,7.0,69,0.00,,,0.00,meteohub,2013-02-24 04:43:00,
2013-02-23 22:48:00,20.8,12.2,30.15,SE,135,4.0,7.0,69,0.00,,,0.00,meteohub,2013-02-24 04:48:00,
2013-02-23 22:53:00,20.7,12.0,30.15,East,90,4.0,7.0,69,0.00,,,0.00,meteohub,2013-02-24 04:53:00,
2013-02-23 22:58:00,20.7,12.0,30.15,East,90,6.0,7.0,69,0.00,,,0.00,meteohub,2013-02-24 04:58:00,
2013-02-23 23:00:00,20.7,12.0,30.16,ESE,113,4.0,7.0,69,0.00,,,0.00,meteohub,2013-02-24 05:00:00,
2013-02-23 23:02:00,20.5,12.0,30.16,South,180,4.0,6.0,69,0.00,,,0.00,meteohub,2013-02-24 05:02:00,
2013-02-23 23:04:00,20.5,12.2,30.16,South,180,4.0,6.0,70,0.00,,,0.00,meteohub,2013-02-24 05:04:00,
2013-02-23 23:08:00,20.5,12.2,30.16,NE,45,4.0,6.0,70,0.00,,,0.00,meteohub,2013-02-24 05:08:00,
2013-02-23 23:13:00,20.3,12.0,30.16,SE,135,4.0,7.0,70,0.00,,,0.00,meteohub,2013-02-24 05:13:00,
2013-02-23 23:18:00,20.1,11.8,30.16,SE,135,2.0,7.0,70,0.00,,,0.00,meteohub,2013-02-24 05:18:00,
2013-02-23 23:23:00,20.1,11.8,30.16,ESE,113,2.0,7.0,70,0.00,,,0.00,meteohub,2013-02-24 05:23:00,
2013-02-23 23:28:00,20.1,11.8,30.16,East,90,5.0,7.0,70,0.00,,,0.00,meteohub,2013-02-24 05:28:00,
2013-02-23 23:33:00,19.9,11.7,30.16,East,90,2.0,5.0,70,0.00,,,0.00,meteohub,2013-02-24 05:33:00,
2013-02-23 23:38:00,19.9,11.7,30.16,SE,135,3.0,5.0,70,0.00,,,0.00,meteohub,2013-02-24 05:38:00,
2013-02-23 23:43:00,19.8,11.5,30.16,East,90,2.0,5.0,70,0.00,,,0.00,meteohub,2013-02-24 05:43:00,
2013-02-23 23:48:00,19.6,11.5,30.16,East,90,4.0,5.0,70,0.00,,,0.00,meteohub,2013-02-24 05:48:00,
2013-02-23 23:53:00,19.6,11.5,30.16,SE,135,2.0,5.0,70,0.00,,,0.00,meteohub,2013-02-24 05:53:00,
2013-02-23 23:58:00,19.4,11.3,30.16,East,90,3.0,5.0,70,0.00,,,0.00,meteohub,2013-02-24 05:58:00,